Погода в Большой Таябе

Россия / Чувашская Республика     55°14′32″N   47°55′07″E
темп.,
°C
ветер,
м/с
пор.,
м/с
влажн.,
%
обл.,
%
осадки,
мм/ч
давл.,
гПа
погр.,
м
8 мая, сб
сб800:00+9ссз4693100 3.8 1016417
03:00+8ссв4891100 5.4 1017377
06:00+8ссв2493100 0.4 1017277
09:00+9ссв2391100 0.8 1018286
12:00+11всв227935 0.1 1017516
15:00+14юв236797 0.1 1016850
18:00+14вюв247561 0.0 1014179
21:00+10вюв411905 0.0 1013213
9 мая, вс
вс900:00+10юв41285100 0.0 1012245
03:00+9ююв478368 0.0 1012113
06:00+11ююв5118194 0.0 1011261
09:00+16ю61059100 0.0 1012558
12:00+18ююв61053100 0.0 1011736
15:00+19ююв7115893 0.0 10111130
18:00+18ююв51065100 0.3 1011333
21:00+14зюз1193100 8.5 101419
10 мая, пн
пн1000:00+11зсз469598 0.3 1015207
03:00+10зсз4891100 0.3 1018330
06:00+9сз5791100 0.4 1020385
09:00+9ссз6887100 0.6 1021375
12:00+10с6778100 0.0 1023508
15:00+11с6879100 0.0 1025560
18:00+10с5883100 0.0 1026529
21:00+8ссв61289100 0.0 1027449
11 мая, вт
вт1100:00+7ссв51090100 0.0 1028302
03:00+6ссв5129057 0.0 1028301
06:00+8св5108785 0.0 1030339
09:00+12св5668100 0.0 1030557
12:00+16св5659100 0.0 1030761
15:00+18всв5654100 0.0 1029911
18:00+16всв366594 0.0 1030186
21:00+12св476991 0.0 1030115
12 мая, ср
ср1200:00+10св410663 0.0 1030151
03:00+9всв49730 0.0 1030146
06:00+11в410671 0.0 1031254
09:00+17в57545 0.0 1030466
12:00+20в554612 0.0 1030874
15:00+20в564110 0.0 1029920
18:00+18в48573 0.0 1028249
21:00+13в48613 0.0 1028117